• în Republica Moldova
  • Lista ţărilor
  • Pe 7 zile
  • Temperatura apei
  • Hartă satelitară
  • Meteo pe hartă
  • Widget-uri
  • user-avatar
    Intrare

    Meteo pe oră la Naftalan

    Astăzi, 20 Octombrie, Vineri

    Timp Temperatura Precipitaţii Vânt Presiune Umiditate
    00:00 +19°C° 0 mm 1 m/s 767 mmHg 82%
    01:00 +18°C° 0 mm 2 m/s 767 mmHg 82%
    02:00 +17°C° 0 mm 2 m/s 767 mmHg 82%
    03:00 +16°C° 0 mm 2 m/s 766 mmHg 82%
    04:00 +16°C° 0 mm 2 m/s 766 mmHg 81%
    05:00 +16°C° 0 mm 2 m/s 766 mmHg 79%
    06:00 +16°C° 0 mm 2 m/s 766 mmHg 78%
    07:00 +17°C° 0 mm 2 m/s 766 mmHg 72%
    08:00 +18°C° 0 mm 2 m/s 766 mmHg 66%
    09:00 +20°C° 0 mm 2 m/s 766 mmHg 60%
    10:00 +21°C° 0 mm 2 m/s 766 mmHg 55%
    11:00 +23°C° 0 mm 2 m/s 766 mmHg 50%
    12:00 +24°C° 0 mm 1 m/s 766 mmHg 46%
    13:00 +24°C° 0 mm 1 m/s 766 mmHg 45%
    14:00 +24°C° 0 mm 1 m/s 766 mmHg 43%
    15:00 +25°C° 0 mm 1 m/s 765 mmHg 42%
    16:00 +23°C° 0 mm 2 m/s 766 mmHg 51%
    17:00 +21°C° 0 mm 2 m/s 766 mmHg 59%
    18:00 +20°C° 0 mm 3 m/s 766 mmHg 68%
    19:00 +19°C° 0 mm 2 m/s 766 mmHg 72%
    20:00 +19°C° 0 mm 2 m/s 766 mmHg 76%
    21:00 +18°C° 0 mm 2 m/s 766 mmHg 80%
    22:00 +18°C° 0 mm 2 m/s 766 mmHg 80%
    23:00 +18°C° 0 mm 2 m/s 766 mmHg 81%

    Mâine, 21 Octombrie, Sâmbătă

    Timp Temperatura Precipitaţii Vânt Presiune Umiditate
    00:00 +17°C° 0 mm 2 m/s 766 mmHg 81%
    01:00 +17°C° 0 mm 2 m/s 766 mmHg 81%
    02:00 +18°C° 0 mm 1 m/s 766 mmHg 82%
    03:00 +18°C° 0 mm 1 m/s 766 mmHg 82%
    04:00 +16°C° 0 mm 1 m/s 766 mmHg 82%
    05:00 +16°C° 0 mm 1 m/s 766 mmHg 82%
    06:00 +16°C° 0 mm 1 m/s 766 mmHg 83%
    07:00 +19°C° 0 mm 1 m/s 766 mmHg 77%
    08:00 +20°C° 0 mm 1 m/s 766 mmHg 71%
    09:00 +21°C° 0 mm 2 m/s 766 mmHg 66%
    10:00 +21°C° 0 mm 2 m/s 766 mmHg 61%
    11:00 +23°C° 0 mm 2 m/s 765 mmHg 57%
    12:00 +24°C° 0 mm 2 m/s 765 mmHg 53%
    13:00 +24°C° 0 mm 2 m/s 765 mmHg 53%
    14:00 +25°C° 0 mm 3 m/s 764 mmHg 54%
    15:00 +25°C° 0 mm 4 m/s 764 mmHg 54%
    16:00 +22°C° 0 mm 4 m/s 764 mmHg 61%
    17:00 +21°C° 0 mm 4 m/s 764 mmHg 69%
    18:00 +20°C° 0 mm 4 m/s 764 mmHg 77%
    19:00 +19°C° 0 mm 4 m/s 764 mmHg 78%
    20:00 +19°C° 0 mm 4 m/s 764 mmHg 79%
    21:00 +19°C° 0 mm 4 m/s 764 mmHg 81%
    22:00 +18°C° 0 mm 4 m/s 763 mmHg 81%
    23:00 +18°C° 0 mm 3 m/s 763 mmHg 82%

    Poimâine, 22 Octombrie, Duminică

    Timp Temperatura Precipitaţii Vânt Presiune Umiditate
    00:00 +18°C° 0 mm 3 m/s 763 mmHg 83%
    01:00 +18°C° 0 mm 3 m/s 763 mmHg 83%
    02:00 +17°C° 0 mm 2 m/s 763 mmHg 83%
    03:00 +17°C° 0 mm 2 m/s 762 mmHg 83%
    04:00 +17°C° 0 mm 2 m/s 762 mmHg 82%
    05:00 +17°C° 0 mm 2 m/s 762 mmHg 81%
    06:00 +17°C° 0 mm 2 m/s 762 mmHg 80%
    07:00 +18°C° 0 mm 2 m/s 762 mmHg 74%
    08:00 +19°C° 0 mm 2 m/s 762 mmHg 68%
    09:00 +21°C° 0 mm 2 m/s 762 mmHg 61%
    10:00 +23°C° 0 mm 2 m/s 762 mmHg 57%
    11:00 +24°C° 0 mm 2 m/s 761 mmHg 52%
    12:00 +25°C° 0 mm 2 m/s 761 mmHg 48%
    13:00 +25°C° 0 mm 2 m/s 760 mmHg 47%
    14:00 +25°C° 0 mm 3 m/s 760 mmHg 46%
    15:00 +25°C° 0 mm 3 m/s 760 mmHg 45%
    16:00 +24°C° 0 mm 3 m/s 760 mmHg 55%
    17:00 +22°C° 0 mm 3 m/s 760 mmHg 65%
    18:00 +20°C° 0 mm 4 m/s 760 mmHg 75%
    19:00 +20°C° 0 mm 3 m/s 760 mmHg 78%
    20:00 +19°C° 0 mm 3 m/s 760 mmHg 81%
    21:00 +19°C° 0 mm 3 m/s 760 mmHg 84%
    22:00 +19°C° 0 mm 3 m/s 760 mmHg 76%
    23:00 +18°C° 0 mm 3 m/s 760 mmHg 68%

    23 Octombrie, Luni

    Timp Temperatura Precipitaţii Vânt Presiune Umiditate
    00:00 +18°C° 0 mm 3 m/s 760 mmHg 60%
    01:00 +18°C° 0 mm 4 m/s 761 mmHg 52%
    02:00 +16°C° 0 mm 5 m/s 761 mmHg 44%
    03:00 +16°C° 0 mm 5 m/s 761 mmHg 37%
    04:00 +16°C° 0 mm 6 m/s 762 mmHg 39%
    05:00 +15°C° 0 mm 6 m/s 762 mmHg 41%
    06:00 +15°C° 0 mm 6 m/s 763 mmHg 43%
    07:00 +16°C° 0 mm 7 m/s 764 mmHg 46%
    08:00 +18°C° 0 mm 7 m/s 765 mmHg 48%
    09:00 +20°C° 0 mm 7 m/s 766 mmHg 50%
    10:00 +20°C° 0 mm 7 m/s 766 mmHg 52%
    11:00 +21°C° 0 mm 7 m/s 766 mmHg 53%
    12:00 +21°C° 0 mm 8 m/s 767 mmHg 54%
    13:00 +21°C° 0 mm 8 m/s 767 mmHg 57%
    14:00 +20°C° 0 mm 8 m/s 767 mmHg 60%
    15:00 +18°C° 0 mm 8 m/s 767 mmHg 63%
    16:00 +18°C° 0 mm 8 m/s 767 mmHg 66%
    17:00 +17°C° 0 mm 7 m/s 768 mmHg 70%
    18:00 +16°C° 0 mm 7 m/s 768 mmHg 73%
    19:00 +16°C° 0 mm 7 m/s 768 mmHg 73%
    20:00 +16°C° 0 mm 7 m/s 768 mmHg 74%
    21:00 +16°C° 0 mm 7 m/s 768 mmHg 74%
    22:00 +16°C° 0 mm 7 m/s 768 mmHg 75%
    23:00 +16°C° 0 mm 7 m/s 768 mmHg 76%

    24 Octombrie, Marţi

    Timp Temperatura Precipitaţii Vânt Presiune Umiditate
    00:00 +16°C° 0 mm 7 m/s 767 mmHg 77%
    01:00 +16°C° 0,1 mm 6 m/s 767 mmHg 78%
    02:00 +16°C° 0,1 mm 6 m/s 767 mmHg 79%
    03:00 +16°C° 0,1 mm 6 m/s 767 mmHg 80%
    04:00 +16°C° 0,2 mm 5 m/s 767 mmHg 80%
    05:00 +16°C° 0,2 mm 5 m/s 767 mmHg 81%
    06:00 +16°C° 0,2 mm 5 m/s 767 mmHg 81%
    07:00 +17°C° 0,2 mm 4 m/s 767 mmHg 80%
    08:00 +18°C° 0,2 mm 4 m/s 767 mmHg 78%
    09:00 +18°C° 0,2 mm 4 m/s 767 mmHg 77%
    10:00 +18°C° 0,1 mm 3 m/s 767 mmHg 76%
    11:00 +18°C° 0,1 mm 3 m/s 766 mmHg 76%
    12:00 +18°C° 0,1 mm 2 m/s 766 mmHg 76%
    13:00 +18°C° 0 mm 2 m/s 766 mmHg 74%
    14:00 +19°C° 0 mm 2 m/s 766 mmHg 72%
    15:00 +19°C° 0 mm 2 m/s 766 mmHg 70%
    16:00 +19°C° 0 mm 2 m/s 766 mmHg 73%
    17:00 +18°C° 0 mm 2 m/s 766 mmHg 76%
    18:00 +17°C° 0 mm 2 m/s 767 mmHg 79%
    19:00 +17°C° 0 mm 2 m/s 767 mmHg 79%
    20:00 +18°C° 0 mm 2 m/s 767 mmHg 78%
    21:00 +18°C° 0 mm 2 m/s 767 mmHg 77%
    22:00 +18°C° 0 mm 2 m/s 767 mmHg 78%
    23:00 +18°C° 0 mm 2 m/s 767 mmHg 78%

    25 Octombrie, Miercuri

    Timp Temperatura Precipitaţii Vânt Presiune Umiditate
    00:00 +19°C° 0 mm 1 m/s 767 mmHg 78%
    01:00 +17°C° 0 mm 2 m/s 767 mmHg 80%
    02:00 +17°C° 0 mm 2 m/s 768 mmHg 81%
    03:00 +17°C° 0 mm 2 m/s 768 mmHg 82%
    04:00 +17°C° 0 mm 2 m/s 768 mmHg 83%
    05:00 +16°C° 0 mm 2 m/s 768 mmHg 84%
    06:00 +16°C° 0 mm 2 m/s 768 mmHg 85%
    07:00 +17°C° 0 mm 2 m/s 769 mmHg 81%
    08:00 +18°C° 0 mm 2 m/s 769 mmHg 77%
    09:00 +19°C° 0 mm 2 m/s 769 mmHg 73%
    10:00 +20°C° 0 mm 2 m/s 769 mmHg 71%
    11:00 +20°C° 0 mm 2 m/s 769 mmHg 68%
    12:00 +21°C° 0 mm 2 m/s 769 mmHg 66%
    13:00 +21°C° 0 mm 3 m/s 769 mmHg 65%
    14:00 +21°C° 0 mm 3 m/s 769 mmHg 65%
    15:00 +21°C° 0 mm 4 m/s 768 mmHg 64%
    16:00 +20°C° 0 mm 4 m/s 769 mmHg 69%
    17:00 +19°C° 0 mm 4 m/s 769 mmHg 73%
    18:00 +19°C° 0 mm 4 m/s 769 mmHg 77%
    19:00 +18°C° 0 mm 4 m/s 770 mmHg 77%
    20:00 +18°C° 0 mm 4 m/s 770 mmHg 76%
    21:00 +18°C° 0 mm 4 m/s 770 mmHg 76%
    22:00 +17°C° 0 mm 4 m/s 770 mmHg 75%
    23:00 +17°C° 0 mm 4 m/s 769 mmHg 75%
    Arată mai mult